Vertical_Velocity
1 1 0 -0 -1 2 3 -0 0 1 -1 -1 4 -2 -4 3 -1 1 1 1 1 -0 -1 -0 2 1 -1 -0 1 -1 -1 -2 -0 -1 -2 -4 -3 -3 -1 2 6 -1 -5 6
1 2 0 0 2 3 4 6 -3 -2 -1 -0 2 -9 -0 3 1 1 -0 2 3 0 -0 -0 1 0 -0 1 -0 -1 -0 -2 -1 -1 -0 1 1 1 -1 -6 -5 5 6 6
2 2 0 1 2 3 1 0 -1 -2 2 -3 -3 -2 4 3 -2 3 -2 2 1 -1 1 -1 -0 -1 0 -1 -0 -1 0 -1 -2 -3 -4 -2 -3 -2 -2 -3 -3 -5 -4 -3
2 1 1 1 2 0 -0 2 -1 3 -1 2 1 1 1 1 2 -0 1 0 0 -2 -2 -1 0 -1 1 -0 -0 -1 -1 -0 0 -1 -1 -0 -2 -1 -1 -2 -0 -3 5 0
2 0 -1 4 -1 -1 1 1 -0 -1 -1 -3 1 -1 -0 4 -4 3 1 0 -0 -3 -4 -0 5 2 3 2 1 0 0 1 -0 -0 -1 -1 2 -1 1 -2 -6 -1 -2 0
2 1 1 0 -0 -3 -5 -0 -3 -2 5 3 -2 3 -0 -1 1 -0 -0 -5 -4 8 3 -1 1 3 1 2 -1 3 -0 -0 -1 2 0 -3 -1 3 2 -4 -4 -3 -4 6
1 1 1 -0 -1 -1 6 2 6 4 0 2 0 3 -2 -5 4 -4 -0 0 4 5 -3 2 -0 -1 -2 0 1 2 1 -1 -0 0 0 0 -7 1 -1 -1 -0 0 -9 -6
2 3 3 0 0 4 -2 3 0 1 1 -1 -5 3 -4 -9 10 -3 6 3 -5 -3 2 1 -1 -0 -2 1 -1 1 0 -1 -4 -4 2 1 -5 8 -0 -1 1 -0 1 -1
1 2 1 1 1 1 1 3 0 -1 -3 -6 1 -7 0 -2 3 1 0 -1 -1 1 -0 -1 1 -0 0 -1 -1 -0 1 -1 1 -2 -1 -2 -11 0 -5 -3 7 1 -0 1
2 2 2 2 0 -1 -1 -1 -0 1 1 -1 -3 -3 3 2 -3 -0 0 -0 -0 1 2 -0 0 2 -3 -2 3 -1 -1 -2 -4 -4 -3 5 1 2 5 -3 -10 2 0 -1
1 1 1 -0 -0 -1 -2 -3 1 1 -1 -1 1 2 -0 2 6 2 1 -1 2 -0 -1 1 1 2 -1 -2 0 2 -1 -3 2 -3 -5 -6 2 5 9 -3 -1 -3 -0 -1
-0 2 0 -0 -1 -1 2 1 1 1 0 -2 -4 -2 -3 -3 -0 4 -4 -0 -1 -1 -1 1 2 -1 1 2 -2 -5 -3 5 -7 -0 1 -15 -4 -0 5 2 0 -2 -4 -2
-1 0 1 -0 -0 2 -2 -1 -1 0 -1 -1 1 1 -2 -3 -3 3 -2 2 -1 3 3 -3 -1 -1 2 0 9 -2 -4 -3 0 -5 4 -12 -4 -2 1 -0 -2 -2 -1 -2
0 -1 -1 -0 -0 3 -1 -3 -2 -1 -1 -1 1 -0 -0 -2 0 0 1 0 2 2 1 -1 3 2 4 2 -3 7 9 2 -6 1 -4 -10 -6 -7 -5 -4 -1 -1 -2 -3
-0 -0 -0 -1 1 -1 -3 -0 1 -1 1 3 0 0 -1 0 -1 0 2 2 2 1 3 2 -2 5 -9 0 3 36 -6 -5 -7 -1 9 -7 3 3 1 -2 -1 -1 -0 -4
-0 -0 1 0 -1 -2 0 -0 -2 2 -0 -1 -1 4 -0 -0 -1 -1 4 4 -1 -2 -2 -0 3 3 -6 -11 -0 28 -4 -10 8 -2 -3 -0 2 1 -1 -1 -4 1 -1 -6
2 1 0 1 -1 -3 -2 3 2 -2 -1 -2 -3 -2 3 1 -1 4 2 -0 1 -4 -3 3 2 -1 -11 -2 13 5 -4 -5 11 -4 -5 1 1 0 -2 -1 -1 2 -2 -0
2 2 -1 -2 -1 -0 3 1 -2 -1 -3 -2 -8 3 6 2 4 1 0 0 -3 -0 -7 2 13 -9 -3 -5 5 1 3 -1 -3 -4 -1 6 1 2 -1 -0 1 2 1 -0
0 0 -1 -2 -3 2 1 -2 -2 -3 -5 -7 3 4 2 4 10 4 0 0 -3 -11 -1 -1 -7 4 10 -5 4 -4 5 2 -3 -1 -2 2 3 -1 1 0 -2 0 0 -1
1 -1 -4 1 1 2 1 -3 -6 -3 -5 -4 2 7 1 5 5 5 0 -2 -3 -14 3 -5 -4 -6 17 -2 -2 2 3 -6 -3 -2 -4 0 2 1 4 -2 2 -1 -1 -1
-2 1 0 7 4 -3 -1 -8 -0 0 -3 2 3 8 6 12 -0 3 -2 -7 -5 -12 3 3 -13 0 16 6 -0 1 -1 -1 -0 2 -1 3 1 -0 0 -1 -4 -2 0 -3
3 5 4 -0 1 1 -7 -6 -1 2 -6 -2 10 12 7 0 3 -3 -3 -1 -11 -10 3 -6 -13 6 4 4 3 2 -0 2 2 0 0 -1 -3 -1 -1 -1 -1 -0 2 -2
2 2 7 9 4 -8 -7 -4 -4 -0 2 5 10 2 1 6 9 1 2 -3 -3 4 -7 -7 -0 -3 -2 -0 2 3 -1 -1 2 1 -1 1 -0 -1 -2 1 -2 -1 3 -2
9 9 4 5 -2 -15 -9 -0 6 3 3 2 4 5 1 7 2 6 3 -3 -1 -7 -4 1 -2 -7 -3 -0 -0 4 -0 -2 -1 0 1 1 2 1 -1 -2 -2 -1 -1 1
3 8 7 -2 1 -3 -3 -3 -1 -1 1 2 1 1 4 6 1 3 3 -1 1 4 -9 -7 -11 -3 -3 -3 -1 -0 4 5 5 2 1 1 0 1 3 -2 -5 -4 -2 -1
-2 1 2 3 4 2 -0 -3 -5 -6 -5 -2 -1 1 -2 2 5 1 1 3 -2 -7 -3 -2 -4 -9 -6 -4 -4 -1 -0 -1 -0 -1 0 2 -1 -2 -0 2 -1 1 -2 -0
2 -1 0 -3 0 2 1 -2 -0 -1 -1 1 1 -1 2 -2 1 5 6 2 5 6 4 5 6 7 6 2 2 2 1 2 0 -0 -2 -3 -5 -2 -1 -1 3 0 -3 -5
Height
5674 5681 5689 5697 5705 5713 5722 5729 5736 5742 5748 5754 5760 5764 5767 5772 5775 5777 5779 5780 5781 5782 5784 5785 5787 5788 5790 5792 5794 5796 5797 5799 5801 5801 5800 5799 5798 5797 5796 5793 5792 5785 5780 5781
5671 5679 5688 5696 5705 5713 5721 5729 5734 5741 5746 5753 5758 5761 5766 5771 5773 5775 5777 5779 5780 5781 5782 5784 5786 5787 5789 5791 5792 5794 5796 5797 5798 5798 5799 5797 5795 5792 5789 5785 5782 5781 5775 5774
5670 5678 5686 5696 5704 5712 5719 5726 5733 5739 5746 5750 5755 5760 5765 5768 5771 5773 5775 5777 5777 5779 5781 5782 5784 5785 5787 5789 5791 5792 5793 5794 5794 5795 5794 5793 5791 5788 5785 5782 5777 5773 5769 5763
5667 5676 5684 5694 5702 5708 5717 5724 5731 5739 5744 5749 5755 5759 5762 5765 5768 5770 5772 5773 5775 5777 5778 5780 5782 5783 5785 5786 5788 5789 5790 5791 5791 5790 5789 5788 5786 5784 5781 5777 5772 5767 5763 5757
5665 5673 5682 5690 5699 5707 5715 5722 5728 5735 5741 5747 5752 5755 5759 5763 5764 5767 5769 5770 5772 5774 5774 5777 5780 5781 5783 5784 5785 5786 5787 5787 5787 5786 5785 5783 5782 5779 5775 5771 5765 5762 5757 5752
5663 5671 5680 5688 5696 5704 5711 5719 5725 5732 5739 5744 5748 5753 5756 5758 5761 5763 5765 5765 5767 5772 5774 5774 5776 5778 5779 5780 5781 5782 5782 5782 5782 5782 5780 5778 5775 5772 5770 5765 5758 5754 5749 5746
5661 5669 5677 5685 5693 5700 5710 5717 5724 5730 5736 5740 5744 5749 5751 5752 5757 5758 5760 5763 5767 5770 5768 5771 5772 5773 5774 5776 5776 5778 5777 5777 5776 5775 5773 5771 5767 5763 5762 5757 5752 5748 5740 5736
5660 5667 5675 5682 5689 5699 5705 5711 5719 5725 5731 5735 5739 5744 5745 5748 5753 5755 5758 5761 5761 5762 5765 5767 5768 5769 5770 5771 5771 5772 5772 5770 5769 5767 5765 5764 5758 5756 5753 5749 5745 5741 5735 5729
5658 5665 5672 5679 5687 5694 5700 5708 5715 5720 5725 5730 5735 5737 5741 5744 5749 5751 5753 5755 5755 5759 5760 5761 5762 5763 5764 5765 5766 5765 5765 5763 5762 5759 5756 5753 5749 5746 5742 5738 5736 5731 5726 5721
5656 5662 5669 5676 5683 5689 5696 5703 5709 5716 5721 5725 5728 5733 5737 5740 5742 5745 5747 5748 5751 5753 5754 5755 5756 5757 5758 5759 5759 5759 5757 5755 5754 5751 5748 5746 5742 5737 5735 5731 5728 5721 5715 5710
5654 5660 5666 5673 5679 5685 5691 5698 5704 5710 5715 5719 5723 5728 5731 5734 5738 5740 5742 5743 5745 5747 5748 5750 5751 5750 5751 5751 5751 5751 5749 5747 5746 5742 5739 5737 5732 5729 5727 5721 5714 5709 5705 5699
5652 5658 5664 5670 5675 5681 5687 5693 5699 5704 5710 5714 5716 5720 5723 5727 5731 5734 5734 5736 5739 5739 5742 5744 5743 5744 5744 5744 5743 5742 5740 5739 5736 5734 5731 5725 5722 5719 5715 5709 5703 5698 5693 5688
5649 5655 5661 5667 5672 5678 5683 5687 5693 5698 5702 5707 5711 5715 5717 5719 5722 5726 5728 5730 5731 5733 5735 5734 5735 5736 5736 5735 5735 5732 5730 5727 5726 5722 5719 5714 5711 5706 5702 5698 5691 5686 5681 5675
5646 5652 5658 5663 5669 5674 5678 5683 5688 5692 5696 5700 5704 5707 5710 5712 5714 5718 5720 5721 5723 5725 5726 5727 5727 5727 5726 5727 5726 5724 5723 5718 5716 5712 5707 5701 5697 5693 5690 5685 5680 5675 5669 5663
5642 5649 5655 5660 5664 5669 5673 5678 5682 5686 5692 5694 5697 5700 5702 5705 5707 5709 5711 5713 5714 5716 5718 5718 5718 5717 5717 5717 5716 5716 5712 5709 5705 5703 5700 5692 5687 5684 5679 5674 5669 5663 5657 5650
5638 5644 5650 5655 5660 5665 5670 5673 5677 5680 5684 5688 5691 5694 5695 5697 5699 5701 5703 5705 5706 5707 5707 5707 5707 5708 5707 5705 5705 5707 5700 5697 5695 5692 5686 5681 5677 5672 5666 5661 5655 5649 5643 5635
5633 5639 5644 5650 5655 5659 5664 5668 5672 5674 5677 5680 5683 5685 5688 5690 5692 5695 5696 5695 5696 5697 5697 5698 5698 5697 5695 5694 5697 5694 5687 5686 5684 5678 5673 5669 5664 5659 5654 5648 5642 5636 5628 5620
5627 5634 5639 5644 5648 5653 5657 5661 5665 5668 5670 5673 5674 5679 5684 5684 5685 5685 5686 5687 5687 5688 5687 5688 5689 5686 5683 5684 5685 5679 5676 5673 5669 5663 5659 5656 5651 5646 5640 5634 5628 5621 5613 5605
5622 5628 5632 5637 5642 5646 5650 5654 5658 5661 5664 5664 5668 5671 5674 5676 5677 5677 5677 5677 5677 5677 5677 5677 5675 5674 5673 5672 5670 5666 5664 5660 5655 5650 5646 5642 5638 5632 5626 5620 5614 5606 5597 5588
5616 5622 5627 5631 5635 5639 5643 5646 5650 5652 5654 5655 5659 5663 5665 5667 5667 5668 5668 5667 5666 5665 5666 5663 5662 5662 5663 5659 5656 5654 5650 5645 5641 5636 5632 5628 5623 5618 5612 5604 5597 5590 5581 5573
5610 5615 5620 5625 5630 5632 5635 5637 5641 5644 5646 5648 5651 5654 5655 5657 5657 5657 5656 5654 5653 5652 5652 5650 5649 5650 5651 5647 5644 5641 5637 5632 5628 5624 5619 5615 5609 5603 5596 5588 5581 5574 5565 5557
5605 5610 5614 5617 5622 5623 5626 5628 5632 5634 5637 5639 5643 5647 5647 5646 5646 5643 5643 5643 5642 5640 5639 5636 5635 5638 5636 5632 5629 5626 5624 5620 5616 5611 5605 5599 5593 5586 5579 5572 5565 5558 5549 5540
5598 5602 5607 5609 5612 5614 5617 5618 5622 5626 5629 5631 5634 5635 5635 5635 5634 5632 5631 5628 5628 5627 5625 5623 5624 5623 5621 5619 5615 5612 5607 5604 5599 5594 5588 5582 5575 5569 5563 5556 5548 5541 5533 5524
5592 5595 5597 5599 5600 5603 5607 5610 5613 5616 5618 5620 5621 5622 5622 5623 5622 5620 5619 5616 5615 5612 5611 5611 5609 5607 5606 5605 5601 5597 5591 5587 5582 5577 5572 5567 5560 5553 5546 5539 5532 5526 5519 5510
5582 5585 5586 5589 5592 5595 5597 5600 5603 5605 5606 5607 5608 5609 5610 5610 5609 5607 5606 5604 5602 5600 5597 5596 5593 5593 5590 5588 5584 5580 5577 5572 5567 5562 5557 5551 5545 5539 5532 5523 5516 5510 5502 5494
5571 5573 5576 5579 5582 5585 5588 5590 5591 5593 5595 5596 5596 5596 5595 5595 5594 5594 5593 5591 5588 5585 5584 5582 5579 5576 5574 5571 5568 5565 5561 5556 5552 5547 5541 5535 5529 5524 5518 5510 5501 5494 5485 5478
5559 5562 5565 5568 5571 5573 5576 5578 5580 5582 5583 5584 5584 5584 5584 5583 5582 5581 5580 5576 5575 5573 5570 5567 5565 5563 5561 5558 5554 5550 5546 5541 5536 5531 5525 5519 5513 5508 5501 5495 5486 5477 5469 5463